sat.trackr.live / text

‹ back to catalog

AMAZONAS 5

NORAD 42934 · 2017-053A

PAYLOAD ACTIVE UNKNOWN

§ Identity

Operator
Country
SPN
Launch date
2017-09-11
Launch site
TYMSC
Launch vehicle
Mass (kg)
RCS (m²)

Purposes: comms

External: N2YO · Heavens-Above · Gunter

§ Orbital elements

Epoch: 2026-05-25T03:44:42.071136Z

Period
1,436.11 min
Inclination
0.0324°
Eccentricity
0.0003209
Mean motion
1.00270872 rev/d
Perigee alt
35,773.3 km
Apogee alt
35,800.4 km
Semi-major
42,165.0 km
B*
0.0000e+0
RAAN
320.0717°
Arg perigee
56.6825°
Mean anomaly
221.1757°
Rev number
3,181

§ Raw data

AMAZONAS 51 42934U 17053A   26145.15604249 -.00000285  00000+0  00000+0 0  99912 42934   0.0324 320.0717 0003209  56.6825 221.1757  1.00270872 31814

JSON: /api/v1/satellites/42934 · /tle

For live sub-satellite position, see the globe view (requires WebGL).

§ Visibility from observer

Set your observer location to see the next 7 days of passes ≥ 10°. The values pass through the URL so the page stays shareable.

No JS? Fill the form by hand. The geolocation button needs JavaScript.